Regional Weather Roundup
Issued by NWS

Home | Current Version | Previous Version | Text Only | Print | Product List | Glossary Off
Versions: 1 2 3 4 5 6 7 8 9 10 11 12 13 14 15 16 17 18 19 20 21 22 23 24 25 26 27 28 29 30 31 32 33 34 35 36 37 38 39 40 41 42 43 44 45 46 47 48 49 50

718
ASUS43 KBIS 281102
RWRND

NORTH DAKOTA REGIONAL WEATHER ROUNDUP
NATIONAL WEATHER SERVICE BISMARCK ND
600 AM CDT SUN MAY 28 2017

NOTE: "FAIR" INDICATES FEW OR NO CLOUDS BELOW 12,000 FEET WITH NO
SIGNIFICANT WEATHER AND/OR OBSTRUCTIONS TO VISIBILITY.


NDZ001>003-009>011-017-281200-
NORTHWEST NORTH DAKOTA

CITY           SKY/WX    TMP DP  RH WIND       PRES   REMARKS
WILLISTON      FAIR      48  35  60 E5        29.97R
MINOT          FAIR      52  42  69 W16       29.88R
MINOT AFB      CLEAR     49  44  81 NW14      29.87R
$$

NDZ018>021-031>035-040>046-281200-
SOUTHWEST NORTH DAKOTA

CITY           SKY/WX    TMP DP  RH WIND       PRES   REMARKS
BISMARCK       FAIR      47  42  83 W7        29.90R
DICKINSON      FAIR      41  36  82 W10       29.95S
GARRISON         N/A     46  41  82 NW13      29.89R
HETTINGER ARPT CLEAR     41  36  82 NW6       29.99R
$$

NDZ004>008-012>016-024-026-027-054-281200-
NORTHEAST NORTH DAKOTA

CITY           SKY/WX    TMP DP  RH WIND       PRES   REMARKS
GRAND FORKS    PTCLDY    50  47  89 NW7       29.73S
GRND FRKS AFB  CLOUDY    51  47  85 NW8       29.74S
DEVILS LAKE    MOCLDY    51  47  86 W10       29.80R
$$

NDZ022-023-025-028>030-036>039-047>053-281200-
SOUTHEAST NORTH DAKOTA

CITY           SKY/WX    TMP DP  RH WIND       PRES   REMARKS
FARGO          CLEAR     49  46  90 W6        29.75F
JAMESTOWN      CLOUDY    53  45  74 NW9       29.79F
$$





USA.gov is the U.S. government's official web portal to all federal, state and local government web resources and services.